Location: Banff
(51.1667°N, 115.5667°W)
Time: 08:39:50
(UTC+00:00)

N. Korean satellite - Pass Details

Date: 02 December 2022
Orbit: 407 x 444 km, 97.3° (Epoch: 28 January)

Event Time Altitude Azimuth Distance (km) Brightness Sun altitude
Rises 01:19:36 0° 215° (SW) 2,453 11.0 -15.1°
Reaches altitude 10° 01:22:47 10° 249° (WSW) 1,603 10.6 -15.6°
Maximum altitude 01:24:07 12° 272° (W) 1,502 10.2 -15.8°
Drops below altitude 10° 01:25:27 10° 295° (WNW) 1,619 9.9 -16.0°
Sets 01:28:43 0° 328° (NNW) 2,514 10.4 -16.5°
